This is the latest recevied weather packets stored in our database for station/object NA9VY-8. If no packets are shown the sender has not sent any weather packets the latest 10 day(s).
| Time | Temp. | Humidity | Pressure | Rain* | Wind** | Luminosity | Snow |
|---|---|---|---|---|---|---|---|
| 1777554766 | 8.33° C | 81% | 1024.2 hPa | 0 mm | - | 243 W/m² | - |
| 1777554463 | 7.78° C | 81% | 1024.1 hPa | 0 mm | - | 250 W/m² | - |
| 1777554159 | 7.78° C | 82% | 1024.2 hPa | 0 mm | - | 234 W/m² | - |
| 1777553856 | 7.78° C | 81% | 1024.1 hPa | 0 mm | - | 239 W/m² | - |
| 1777553552 | 7.78° C | 82% | 1024.1 hPa | 0 mm | - | 207 W/m² | - |
| 1777553248 | 7.78° C | 81% | 1024 hPa | 0 mm | - | 179 W/m² | - |
| 1777552945 | 7.22° C | 82% | 1024.1 hPa | 0 mm | - | 180 W/m² | - |
| 1777552645 | 7.78° C | 83% | 1024 hPa | 0 mm | - | 126 W/m² | - |
| 1777552342 | 7.78° C | 86% | 1023.9 hPa | 0 mm | - | 138 W/m² | - |
| 1777552038 | 7.22° C | 86% | 1023.8 hPa | 0 mm | - | 115 W/m² | - |
| 1777551735 | 6.67° C | 87% | 1023.6 hPa | 0 mm | - | 127 W/m² | - |
| 1777551433 | 6.67° C | 87% | 1023.8 hPa | 0 mm | - | 84 W/m² | - |
| 1777551130 | 6.67° C | 89% | 1023.7 hPa | 0 mm | - | 79 W/m² | - |
| 1777550827 | 6.11° C | 89% | 1023.5 hPa | 0 mm | - | 78 W/m² | - |
| 1777550523 | 6.11° C | 90% | 1023.2 hPa | 0 mm | - | 69 W/m² | - |
| 1777550219 | 6.11° C | 90% | 1023.3 hPa | 0 mm | - | 57 W/m² | - |
| 1777549915 | 6.11° C | 92% | 1023.2 hPa | 0 mm | - | 53 W/m² | - |
| 1777549612 | 5.56° C | 93% | 1023.1 hPa | 0 mm | - | 46 W/m² | - |
| 1777549307 | 5.56° C | 93% | 1022.9 hPa | 0 mm | - | 40 W/m² | - |
| 1777549005 | 5.56° C | 93% | 1022.8 hPa | 0 mm | - | 35 W/m² | - |
| 1777548701 | 5.56° C | 94% | 1022.6 hPa | 0 mm | - | 31 W/m² | - |
| 1777548399 | 5° C | 94% | 1022.6 hPa | 0 mm | - | 26 W/m² | - |
| 1777548096 | 4.44° C | 95% | 1022.5 hPa | 0 mm | - | 20 W/m² | - |
| 1777547791 | 4.44° C | 95% | 1022.5 hPa | 0 mm | - | 12 W/m² | - |
| 1777547487 | 4.44° C | 95% | 1022.5 hPa | 0 mm | - | 10 W/m² | - |
* Rain latest hour (hover to see other rain measurements)
** Current wind speed in m/s (hover to see current wind gust speed)